[[{"header":{"parameterUnit":"m.s-1","parameterCategory":1,"la1":30.2992,"la2":30.254,"lo1":-89.0895,"lo2":-89.0443,"dy":0.0025,"dx":0.0025,"nx":19,"ny":19,"refTime":"2026-04-02T21:00:00:Z","depth":0,"parameterNumber":2,"parameterNumberName":"U-component_of_WINDS"},"data":[0,0,0,-4.6228,-4.6232,-4.6401,-4.6402,-4.6616,-4.6617,0,0,0,0,0,0,0,0,0,0,0,-4.6176,-4.6178,-4.6228,-4.6232,-4.6401,-4.6402,-4.6615,-4.6618,0,0,0,0,0,0,0,0,0,0,0,-4.6176,-4.6177,-4.6179,-4.6233,-4.6401,-4.6402,-4.6615,-4.6488,0,0,0,0,0,0,0,0,0,0,-4.6324,-4.6274,-4.6177,-4.6179,-4.6234,-4.6401,-4.6402,-4.6482,-4.6496,-4.6538,0,-4.6574,0,-4.6599,-4.6632,-4.6632,0,0,0,-4.6234,-4.6263,-4.631,-4.6179,-4.6235,-4.64,-4.6325,-4.649,-4.6506,-4.6556,-4.6577,-4.6585,-4.6603,-4.6633,-4.6634,-4.6869,-4.687,0,0,-4.6224,-4.6206,-4.6299,-4.632,-4.6293,-4.632,-4.633,-4.65,-4.6521,-4.6578,-4.659,-4.6606,-4.6634,-4.6636,-4.6868,-4.6869,0,0,0,-4.6196,-4.6199,-4.6242,-4.6311,-4.6342,-4.6325,-4.6337,-4.6514,-4.6529,-4.6593,-4.6609,-4.6636,-4.6638,-4.6867,-4.6869,-4.6899,0,0,0,-4.6191,-4.6183,-4.6238,-4.6228,-4.6339,-4.643,-4.6347,-4.6518,-4.6537,-4.6608,-4.6636,-4.664,-4.6866,-4.6868,-4.6896,-4.6916,0,0,0,-4.6166,-4.618,-4.6204,-4.6227,-4.6299,-4.6427,-4.6453,-4.6522,-4.6547,-4.6633,-4.6641,-4.6865,-4.6868,-4.6893,-4.6912,-4.6971,0,0,0,-4.6134,-4.623,-4.6204,-4.6318,-4.6298,-4.6446,-4.6452,-4.6564,-4.6641,-4.6637,-4.6866,-4.6868,-4.6892,-4.6909,-4.6968,-4.7016,-4.7035,0,0,-4.6244,-4.6242,-4.6311,-4.6293,-4.644,-4.6422,-4.6575,-4.6663,-4.6689,-4.6808,-4.6814,-4.6897,-4.6911,-4.6971,-4.7152,-4.7167,0,0,0,-4.6339,-4.6388,-4.6431,-4.6503,-4.6574,-4.6635,-4.6702,-4.6736,-4.6837,-4.6746,-4.6937,-4.6946,-4.6981,-4.7005,-4.7018,-4.7049,-4.6879,-4.6879,-4.6879,-4.6466,-4.6494,-4.6609,-4.6657,-4.6728,-4.6797,-4.6856,-4.6913,-4.6921,-4.6966,-4.7,-4.7107,-4.7134,-4.7143,-4.7175,-4.703,-4.703,-4.703,-4.703,-4.6629,-4.6701,-4.671,-4.6824,-4.6853,-4.695,-4.7021,-4.7024,-4.7118,-4.7083,-4.7116,-4.7073,-4.7159,-4.7188,-4.7033,-4.7033,-4.7032,-4.7032,-4.7032,-4.6713,-4.6752,-4.6791,-4.6899,-4.6979,-4.7026,-4.7116,-4.714,-4.7164,-4.7197,-4.7235,-4.7234,-4.7235,-4.7214,-4.7214,-4.7215,-4.7215,-4.7215,-4.7215,-4.6783,-4.6827,-4.6899,-4.6982,-4.7032,-4.7101,-4.7172,-4.7222,-4.7284,-4.7295,-4.7295,-4.7297,-4.7163,-4.7127,-4.7221,-4.722,-4.7219,-4.7219,-4.7218,-4.6933,-4.6903,-4.7014,-4.7064,-4.7164,-4.7242,-4.7273,-4.7373,-4.7418,-4.7461,-4.7459,-4.7356,-4.7355,-4.7346,-4.7316,-4.7453,-4.7453,-4.7453,-4.7453,-4.7001,-4.7005,-4.7123,-4.7201,-4.7281,-4.7321,-4.7446,-4.7504,-4.7558,-4.7588,-4.7573,-4.7537,-4.7526,-4.7532,-4.7518,-4.749,-4.7669,-4.7669,-4.7669,-4.7094,-4.7106,-4.7207,-4.7259,-4.734,-4.7409,-4.7527,-4.7617,-4.7673,-4.7679,-4.7612,-4.7603,-4.7544,-4.7525,-4.7524,-4.7502,-4.7452,0,0]},{"header":{"parameterUnit":"m.s-1","parameterCategory":1,"la1":30.2992,"la2":30.254,"lo1":-89.0895,"lo2":-89.0443,"dy":0.0025,"dx":0.0025,"nx":19,"ny":19,"refTime":"2026-04-02T21:00:00:Z","depth":0,"parameterNumber":3,"parameterNumberName":"V-component_of_WINDS"},"data":[0,0,0,4.582,4.5822,4.5934,4.5935,4.6079,4.608,0,0,0,0,0,0,0,0,0,0,0,4.5787,4.5788,4.5819,4.5822,4.5934,4.5935,4.6078,4.608,0,0,0,0,0,0,0,0,0,0,0,4.5786,4.5787,4.5789,4.5823,4.5934,4.5935,4.6078,4.5993,0,0,0,0,0,0,0,0,0,0,4.5884,4.5854,4.5787,4.5789,4.5823,4.5934,4.5935,4.5989,4.5998,4.6028,0,4.6054,0,4.607,4.609,4.609,0,0,0,4.5822,4.5846,4.5876,4.5789,4.5824,4.5934,4.5884,4.5994,4.6005,4.604,4.6057,4.6062,4.6072,4.609,4.6091,4.6266,4.6267,0,0,4.5815,4.5807,4.5869,4.5883,4.5866,4.588,4.5887,4.6001,4.6017,4.6057,4.6065,4.6074,4.6091,4.6093,4.6266,4.6267,0,0,0,4.5798,4.5802,4.583,4.5877,4.5898,4.5883,4.5892,4.6012,4.6022,4.6067,4.6076,4.6092,4.6094,4.6265,4.6266,4.6301,0,0,0,4.5794,4.5792,4.5827,4.5823,4.5896,4.5956,4.59,4.6014,4.6027,4.6075,4.6092,4.6095,4.6264,4.6265,4.6298,4.6318,0,0,0,4.5779,4.579,4.5807,4.5822,4.587,4.5955,4.5971,4.6017,4.6033,4.609,4.6096,4.6263,4.6265,4.6295,4.6314,4.6363,0,0,0,4.576,4.5834,4.5807,4.5893,4.5869,4.5976,4.597,4.605,4.6103,4.6093,4.6264,4.6266,4.6294,4.6311,4.636,4.6403,4.642,0,0,4.5848,4.5844,4.5896,4.5875,4.5984,4.5959,4.6074,4.6129,4.6142,4.6224,4.6229,4.6299,4.6313,4.6362,4.6518,4.6532,0,0,0,4.592,4.5958,4.5988,4.604,4.6086,4.6127,4.6167,4.6189,4.6259,4.6183,4.633,4.6339,4.6368,4.6389,4.64,4.6427,4.6275,4.6275,4.6275,4.6031,4.6046,4.6133,4.6162,4.6212,4.6254,4.6296,4.6332,4.633,4.6365,4.6389,4.6482,4.6507,4.6515,4.6543,4.6413,4.6413,4.6413,4.6413,4.6162,4.6218,4.6217,4.6301,4.6317,4.6388,4.6432,4.6429,4.6498,4.6464,4.649,4.6453,4.653,4.6555,4.6416,4.6416,4.6415,4.6415,4.6415,4.6236,4.6266,4.6292,4.6371,4.6429,4.6456,4.6523,4.6534,4.6544,4.6571,4.6599,4.6599,4.66,4.6584,4.6584,4.6584,4.6584,4.6585,4.6585,4.6303,4.6332,4.6388,4.6446,4.6482,4.6531,4.6577,4.6613,4.6655,4.6658,4.6658,4.6654,4.6535,4.6505,4.659,4.6589,4.6588,4.6588,4.6588,4.6431,4.6405,4.6491,4.6528,4.6599,4.6658,4.6672,4.6745,4.6776,4.6809,4.68,4.671,4.6706,4.6697,4.6672,4.6796,4.6796,4.6796,4.6796,4.6495,4.6495,4.6587,4.6646,4.6704,4.6727,4.6825,4.6863,4.6897,4.6917,4.6901,4.687,4.686,4.6862,4.6849,4.6826,4.6987,4.6987,4.6987,4.6575,4.6582,4.6663,4.6698,4.6755,4.6804,4.6898,4.6965,4.6998,4.6995,4.6934,4.6926,4.6875,4.6858,4.6852,4.6832,4.6791,0,0]}]]